Other Public Products
Issued by NWS Charleston, SC

Current Version | Previous Version | Graphics & Text | Print | Product List | Glossary On
Versions: 1 2 3 4 5 6 7 8 9 10 11 12 13 14 15 16 17 18 19 20 21 22 23 24 25 26 27 28 29 30 31 32 33 34 35 36 37 38 39 40 41 42 43 44 45 46 47 48 49 50
000
FPUS82 KCHS 250112
OPUCHS

TEST...KCHS/KSAV Gateway Observations...TEST
National Weather Service Charleston SC
900 PM EDT MON APR 24 2017

NOTE: "fair" indicates few or no clouds below 12,000 feet with no
significant weather and/or obstructions to visibility.

SCZ050-WAZ558-NCZ071-TXZ119-213-PAZ071-DCZ001-FLZ074-172-MI076-
NYZ176-178-MAZ016-IL014-TNZ027-NJZ106-GAZ044-MD014-250200-

...Gateway Observations for Charleston International...

CITY           SKY/WX    TMP DP  RH WIND       PRES   REMARKS
Chas Airport   PTCLDY    65  62  90 CALM      29.62R
Seattle        MOSUNNY   57  40  52 N9        29.79R
Charlotte      LGT RAIN  54  51  90 N12       29.73R
Dallas DFW     PTCLDY    73  49  42 S16G24    29.65F
Dallas Love    PTCLDY    74  47  38 S17       29.68F
Philladelphia  CLOUDY    56  37  49 E15G21    30.08S
Wash National  LGT RAIN  54  50  86 NE13      30.02S FOG
Baltimore      LGT RAIN  53  49  86 NE12      30.02F
Miami          CLEAR     77  65  66 W7        29.78R
Detroit        MOCLDY    60  37  42 E15G23    29.93S
Newark         CLOUDY    56  43  61 E6        30.12S
Laguardia      CLOUDY    52  46  80 NE9       30.13R
J F K          CLOUDY    54  40  59 E8        30.14S
Boston Logan   CLOUDY    57  40  52 S8        30.18R
Ft. Lauderdale PTCLDY    77  63  61 W12       29.76R
Chicago O`Hare CLOUDY    61  32  33 E10       29.76F
Chicago Midway MOCLDY    61  34  36 E10       29.78F
Houston Bush   PTCLDY    73  54  51 S12       29.77S
Houston Hobby  MOCLDY    70  51  51 S14       29.78F
Nashville      MOCLDY    65  55  70 CALM      29.77S
Atlanta        MOCLDY    62  58  86 NW9       29.73S

$$

GAZ044-118-TXZ119-213-NCZ071-DCZ001-MDZ014-506-PAZ021-071-NJZ106-
NYZ176-178-MAZ106-OHZ011-021-055-MIZ076-KYZ091-ILZ014-INZ047-
MNZ060-ONZ431-250200-

...Gateway Observations for Savannah International...

CITY           SKY/WX    TMP DP  RH WIND       PRES   REMARKS
Savannah Arpt  MOCLDY    66  54  65 NW14      29.68R
Atlanta        MOCLDY    62  58  86 NW9       29.73S
Charlotte      LGT RAIN  54  51  90 N12       29.73R
Dallas DFW     PTCLDY    73  49  42 S16G24    29.65F
Houston Bush   PTCLDY    73  54  51 S12       29.77S
Wash National  LGT RAIN  54  50  86 NE13      30.02S FOG
Wash Dulles    CLOUDY    51  49  92 N12       30.01F
Baltimore      LGT RAIN  53  49  86 NE12      30.02F
Philadelphia   CLOUDY    56  37  49 E15G21    30.08S
Newark         CLOUDY    56  43  61 E6        30.12S
Laguardia      CLOUDY    52  46  80 NE9       30.13R
J F K          CLOUDY    54  40  59 E8        30.14S
Boston         CLOUDY    57  40  52 S8        30.18R
Pittsburg      CLOUDY    54  46  74 E12       29.98S
Akron          CLOUDY    58  43  57 E13       29.96R
Cleveland      MOCLDY    66  42  41 SE14G25   29.94R
Cincinnati     MOCLDY    63  51  65 E10       29.81S
Columbus       CLOUDY    58  48  68 E9G17     29.88R
Detroit        MOCLDY    60  37  42 E15G23    29.93S
Chicago O`Hare CLOUDY    61  32  33 E10       29.76F
Minneapolis    CLOUDY    68  31  25 S13       29.56F
Indianapolis   PTCLDY    70  47  43 E10       29.77R
Toronto Canada PTCLDY    48  32  53 E7        30.07R

$$




USA.gov is the U.S. government's official web portal to all federal, state and local government web resources and services.